Location: Bocianicha
(51.5066°N, 19.2563°E)
Time: 14:10:06
(UTC+00:00)

Cosmos 158 Rocket - Pass Details

Date: 15 June 2025
Orbit: 695 x 786 km, 74.0° (Epoch: 18 July)

Event Time Altitude Azimuth Distance (km) Brightness Sun altitude
Rises 00:47:31 0° 331° (NNW) 3,206 7.7 -10.4°
Reaches altitude 10° 00:49:59 10° 325° (NW) 2,262 6.8 -10.2°
Maximum altitude 00:54:50 45° 254° (WSW) 987 4.3 -9.8°
Drops below altitude 10° 00:59:32 10° 182° (S) 2,192 5.8 -9.4°
Enters shadow 00:59:59 - 181° (S) 2,358 6.0 -9.4°
